Location: Unspecified
(0.0000°N, 0.0000°E)
Time: 22:35:16
(UTC+02:00)

Orbus 21S - Visible Passes

Search period start: 23 May 2017 00:00
Search period end: 02 June 2017 00:00
Orbit: 280 x 33061 km, 24.3° (Epoch: 22 May)

Date Brightness Start Highest point End Pass type
(mag) Time Alt. Az. Time Alt. Az. Time Alt. Az.
23 May 5.8 04:40:49 10° WNW 06:15:19 35° W 13:22:52 10° SE visible
23 May 8.0 23:28:17 10° NW 00:09:11 55° NE 08:27:21 10° SE visible
25 May 10.3 00:56:46 10° E 01:42:37 12° ESE 02:18:41 10° ESE visible
25 May 9.3 05:11:41 10° WNW 06:36:42 28° W 09:47:10 10° W visible
25 May 8.1 23:51:49 10° NW 04:36:34 85° SSE 08:51:24 10° SE visible
27 May 10.1 00:02:47 10° E 02:03:07 19° ESE 03:13:18 10° ESE visible
27 May 9.5 05:46:50 10° WNW 06:58:00 20° W 09:09:27 10° W visible
28 May 8.2 00:15:19 10° NW 04:08:39 88° SSE 09:15:07 10° SE visible
28 May 10.0 23:23:57 10° E 02:23:25 26° ESE 03:50:10 10° ESE visible
29 May 9.7 06:34:13 10° WNW 07:19:08 13° W 08:22:05 10° W visible
30 May 8.0 00:38:48 10° NW 03:40:38 88° NW 09:38:32 10° SE visible
30 May 6.6 19:44:59 10° NNW 19:50:24 21° NNE 20:10:09 10° ENE visible
01 Jun 7.8 01:02:21 10° NW 03:22:41 83° NW 10:01:41 10° SE visible
01 Jun 6.9 20:07:31 10° NNW 20:14:41 24° NNE 21:07:20 10° ENE visible
